Regional Weather Roundup
Issued by NWS

Home | Current Version | Previous Version | Graphics & Text | Print | Product List | Glossary On
Versions: 1 2 3 4 5 6 7 8 9 10 11 12 13 14 15 16 17 18 19 20 21 22 23 24 25 26 27 28 29 30 31 32 33 34 35 36 37 38 39 40 41 42 43 44 45 46 47 48 49 50
305
ASUS45 KBOU 241210
RWRCO

WEATHER ROUNDUP FOR COLORADO
NATIONAL WEATHER SERVICE PUEBLO CO
600 AM MDT TUE APR 24 2018

NOTE: "FAIR" INDICATES FEW OR NO CLOUDS BELOW 12000 FEET WITH NO
SIGNIFICANT WEATHER AND/OR OBSTRUCTIONS TO VISIBILITY.

COZ001>005-013-030-031-241300-
...NORTHWEST COLORADO...

CITY           SKY/WX    TMP DP  RH WIND       PRES   REMARKS
CRAIG          CLOUDY    31  28  89 SW8       30.30R WCI  23
HAYDEN         CLOUDY    31  28  89 W6        30.31R WCI  25
MEEKER         CLEAR     34  28  79 N10       30.28R WCI  26
RABBIT EARS PA NOT AVBL
STEAMBOAT SPGS MOCLDY    32  29  88 CALM      30.28R
WALDEN         CLOUDY    30  23  74 N13       30.31R WCI  20
$$

COZ006>008-011-241300-
...WEST CENTRAL VALLEYS...

CITY           SKY/WX    TMP DP  RH WIND       PRES   REMARKS
GRAND JUNCTION MOCLDY    53  29  39 S7        30.13R
MONTROSE       MOCLDY    49  35  58 S13       30.20F
EAGLE          PTCLDY    44  32  62 E3        30.22S
RIFLE          CLEAR     44  31  60 W9        30.20R
DELTA          NOT AVBL
NUCLA          NOT AVBL
$$

COZ017>023-064>068-241300-
...SOUTHWEST COLORADO...

CITY           SKY/WX    TMP DP  RH WIND       PRES   REMARKS
DURANGO        PTCLDY    33  12  41 NE6       30.15R WCI  28
CORTEZ         CLEAR     38  22  52 NE7       30.13S
PAGOSA SPRINGS FAIR      33  15  49 CALM      30.21R
TELLURIDE      CLEAR     37  26  65 CALM      30.31S
WOLF CREEK PAS CLEAR     34  10  37 SW6       30.42S WCI  29
$$

COZ009-010-012-014-032>034-037-058>063-241300-
...CENTRAL COLORADO...

CITY           SKY/WX    TMP DP  RH WIND       PRES   REMARKS
ASPEN          MOCLDY    40  35  83 SE10      30.24F
BUENA VISTA    CLOUDY    42  32  68 N8        30.27R
COPPER MTN     NOT AVBL
BERTHOUD PASS  MOCLDY    21  12  68 SW12      30.35R WCI   9
COTTONWOOD PAS CLOUDY    43  30  61 W8        30.33R
GUNNISON       CLOUDY    42  31  64 N3        30.29R
KREMMLING      CLOUDY    43  32  65 N6        30.26R
LEADVILLE      LGT SNOW  31  30  96 SE5       30.29F FOG     WCI  26
MONARCH PASS   MOCLDY    28  25  86 W13       30.48S WCI  18
SALIDA         CLOUDY    44  30  59 W6        30.34R
SUNLIGHT       CLEAR     28  27  93 S8        30.35S WCI  20
WILKERSON PASS CLOUDY    30  28  93 SW12      30.38S WCI  21
$$

COZ069>075-241300-
...SAN LUIS VALLEY/SANGRE DE CRISTO MOUNTAINS...

CITY           SKY/WX    TMP DP  RH WIND       PRES   REMARKS
ALAMOSA        MOCLDY    35  23  61 CALM      30.22R
DEL NORTE      FAIR      33  18  53 CALM      30.25R
LA VETA PASS   SNOW      30  30 100 NE16G22   30.44S VSB 1/4 WCI  19
SAGUACHE       NOT AVBL
$$

COZ035-036-038>040-241300-
...NORTHERN COLORADO FRONT RANGE...

CITY           SKY/WX    TMP DP  RH WIND       PRES   REMARKS
DENVER INTL AP LGT SNOW  32  30  92 N14       30.38R VSB 1   WCI  22
DMNS CITY PARK NOT AVBL
AURORA         NOT AVBL
FRONT RANGE AP LGT SNOW  34  33  96 N13       30.37S WCI  25
ERIE MUNI ARPT LGT RAIN  33  33  98 E3        30.43R
BOULDER MUN AP LGT SNOW  34  34 100 E3        30.37R
CENTENNIAL     LGT SNOW  32  31  96 NE8       30.36R FOG     WCI  25
BROOMFIELD     LGT SNOW  32  32 100 E6        30.37R WCI  26
LOVELAND       CLOUDY    36  31  82 N10       30.38R
LONGMONT       MIX PCPN  36  34  92 S3        30.40R
$$

COZ041-046-047-076>085-087-088-241300-
...PIKES PEAK/PALMER DIVIDE AND SOUTHERN FOOTHILLS...

CITY           SKY/WX    TMP DP  RH WIND       PRES   REMARKS
COLO. SPRINGS  CLOUDY    36  30  79 N20       30.32R
A. F. ACADEMY  CLOUDY    34  29  83 N17       30.31R WCI  23
SCHRIEVER AFB  NOT AVBL
CHEYENNE MTN   NOT AVBL
ELLICOTT         N/A    N/A N/A N/A N25G33    30.29R
FALCON         CLOUDY    32  30  93 N13G22    30.33R WCI  22
FORT CARSON    CLOUDY    40  31  71 N17G23    30.30R
LIMON          MIX PCPN  32  31  96 N20G30    30.32R WCI  20
MONUMENT HILL  CLOUDY    28  28 100 N12G18    30.35R FOG     WCI  18
CANON CITY     CLOUDY    46  36  66 SE12G21   30.27R
WALSENBURG     CLOUDY    41  36  81 NE9       30.32R
TRINIDAD       CLOUDY    41  36  82 N12G25    30.30R
$$

COZ042>045-048>051-090-091-241300-
...NORTHEAST COLORADO...

CITY           SKY/WX    TMP DP  RH WIND       PRES   REMARKS
GREELEY ARPT   CLOUDY    36  32  85 N10       30.38R
AKRON          CLOUDY    34  32  92 N24G32    30.33R WCI  21
BURLINGTON     CLOUDY    38  36  92 N18G32    30.29R
WRAY           LGT RAIN  37  36  93 N16G24    30.30R
YUMA           NOT AVBL
STERLING       NOT AVBL
HOLYOKE        DRIZZLE   37  36  93 N18       30.30R
FORT MORGAN    FLURRIES  34  31  91 N22G28    30.35R WCI  22
$$

COZ086-089-092>099-241300-
...SOUTHEAST COLORADO...

CITY           SKY/WX    TMP DP  RH WIND       PRES   REMARKS
PUEBLO         CLOUDY    45  32  60 N29G41    30.27R
LA JUNTA       CLOUDY    45  34  65 N22G32    30.25R
LAMAR          CLOUDY    45  39  79 N24G38    30.19R
SPRINGFIELD      N/A     41  40  96 NE7       30.15R
$$





USA.gov is the U.S. government's official web portal to all federal, state and local government web resources and services.